Погода в Елгаве

Погода в Елгаве : погода сейчас, прогноз погоды и архив. Всё, что Вы хотите узнать о погоде в Елгаве!

Поиск расширенной информации на нашем сайте:

Другие новости

Новости СМИ2

Главная страница сайта

Новости сайта

03.07.2017

Напоминаем, что на нашем специализированном сайте Метеоцентр.Азия вы можете получить высокодетализированные автоматические прогнозы погоды по пунктам России, СНГ и мира в авиационном формате (включающие направление и скорость ветра, видимость, явления погоды, количество и форму облачности, нижнюю и верхнюю границу облачности).


Погода в Елгаве - сегодня

Время (UTC), дата Ветер
(°,м/с) 
Видим.   Явления Облачность Т
(°С)
Тd
(°С)
f(%) Тe
(°С)
Pmin
(гПа)
dP
(гПа)
Po
(мм)
O2
(г/м3)
Тmin Tmax R s Состояние
почвы
00 17.10.17 240 (ЮЗ) 3-3  н/о    н/о 
+9.1 +9 99 +9  1017.5  0.5  762  296           
03 17.10.17 230 (ЮЗ) 1-2  н/о    н/о 
+8.9 +8.9 100 +10  1018.4  0.9  763  296           
06 17.10.17 260 (З) 3-4  н/о    н/о 
+11.3 +10.7 96 +13  1019.4  1.1  764  294           
09 17.10.17 220 (ЮЗ) 5-8  н/о    н/о 
+13.1 +11.4 89 +15  1018.3  -1.1  763  291           
12 17.10.17 210 (ЮЗ) 7-11  н/о    н/о 
+14.3 +11.9 85 +16  1015.8  -2.4  761  289           
15 17.10.17 //0 (С) //  н/о    н/о 
  -3  759  306           
21 17.10.17 250 (З) 8-10  н/о    н/о 
+12.9 +10.3 84 +12  1010.9  -0.5  758  290           
00 18.10.17 240 (ЮЗ) 6-8  н/о    н/о 
+12.1 +10.1 88 +12  1010.4  -0.5  757  290           
03 18.10.17 220 (ЮЗ) 5-7  н/о    н/о 
+11.7 +9.2 85 +11  1009  -1.4  756  291           
06 18.10.17 240 (ЮЗ) 7-10  н/о    н/о 
+11.4 +8.9 85 +10  1008.9  -0.1  756  291           
09 18.10.17 240 (ЮЗ) 6-8  н/о    н/о 
+12.3 +10.1 86 +12  1009.7  0.7  757  290           
12 18.10.17 260 (З) 7-10  н/о    н/о 
+12.8 +10.9 88 +14  1010.6  0.9  757  289           
15 18.10.17 300 (СЗ) 3-4  н/о    н/о 
+11.2 +10.1 93 +12  1012.3  1.7  759  292           
18 18.10.17 320 (СЗ) 2-3  н/о    н/о 
+8.7 +7.2 90 +9  1014.4  2.1  760  296           
21 18.10.17 280 (З) 2-2  н/о    н/о 
+4.6 +4.1 97 +4  1016.1  1.7  761  301           
00 19.10.17 //0 (С) //  н/о    н/о 
  1.1  762  307           
03 19.10.17 280 (З) 1-2  н/о    н/о 
+2.8 +2.7 99 +4  1017.9  0.8  763  304           
06 19.10.17 260 (З) 2-2  н/о    н/о 
+2.4 +2.4 100 +2  1019.1  1.2  764  305           
09 19.10.17 260 (З) 2-3  н/о    н/о 
+9.4 +6.7 83 +9  1020.3  1.1  765  297           
12 19.10.17 250 (З) 2-3  н/о    н/о 
+11.8 +4.9 63 +12  1020.5  0.3  765  295           
15 19.10.17 350 (С) 2-2  н/о    н/о 
+10.3 +4.6 68 +10  1020.8  0.2  765  296           
18 19.10.17 тихо () -0  н/о    н/о 
+3.7 +3.2 97 +4  1021.7  0.9  766  304           
21 19.10.17 080 (В) 1-2  н/о    н/о 
+2 +2 100 +3  1022.4  0.7  766  306           
00 20.10.17 180 (Ю) 1-1  н/о    н/о 
+0.5 +0.5 100 +1  1023  0.5  767  308           
03 20.10.17 100 (В) 1-1  н/о    н/о 
+0.2 +0.1 99 +1  1023.1  0.1  767  309           
Время (UTC), дата Ветер
(°,м/с) 
Видим.   Явления Облачность Т
(°С)
Тd
(°С)
f(%) Тe
(°С)
Pmin
(гПа)
dP
(гПа)
Po
(мм)
O2
(г/м3)
Тmin Tmax R s Состояние
почвы

Для получения пояснительной информации подведите курсор к названию столбца.

ПОГОДА в Елгаве - архив

Всё, что Вы хотите узнать о погоде в Елгаве - удобно и подробно!

Выберите нужную дату (начиная с 1 января 2015* года) и нажмите кнопку "Найти".
Будут отображены архивные сводки погоды по пункту Елгава, начиная с указанной даты.


Отображать данные в формате CSV (для использования в таблицах Excel)


Внимание! Наш архив погоды предназначен исключительно для личного некоммерческого использования в познавательных целях. Если Вам необходимы официальные справки о состоянии погоды (для производственных, юридических, коммерческих и т.п. целей), обращайтесь в органы Росгидромета.

*Примечание: данная дата относится к архиву по метеостанциям СССР (Россия, СНГ, Балтия).
Архив по метеостанциям Зарубежной Европы и Азии (кроме Китая) хранится 10 дней, по другим регионам земного шара (Китай, Африка, Америка, Австралия, Океания) - 1 день.

Елгава - район местоположения метеостанции


Название, широта, долгота, высота метеостанции:
Елгава 56.6°ш. 23.7°д. 9 м над ур. моря [Латвия]

Дополнительная информация

В oтличие oт бoльшинства пoгoдных сайтoв мы публикуем пoдрoбную метеoинфoрмацию в детальнoм прoфессиoнальнoм фoрмате.

Характеристики температуры и влажнoсти вoздуха измеряются на высoте 2 м в тени вдали oт зданий и деревьев.
Скoрoсть ветра измеряется на высoте 10 м (на урoвне рoста челoвека скoрoсть ветра ниже в 1.5-2 раза). Если метеoстанция нахoдится в гoрoде или в лесу, тo скoрoсть ветра занижена на 2-4 м/с пo сравнению с oткрытым местoм. Скoрoсть ветра над акватoриями крупных рек и oзёр, а также на вершинах хoлмoв на 2-5 м/с выше, чем в oбычных услoвиях.
Атмoсфернoе давление в разных тoчках местнoсти мoжет значительнo oтличаться oт давления на метеoстанции, в зависимoсти oт услoвий рельефа (при пoдъёме на 10 м давление пoнижается примернo на 1 мм рт.ст.).